Allen's Hourly Summary for Friday, March 17, 2017
Hour Temp
(f)
RH
(%)
Solar Rad.
(MJ/m2)
Rainfall
(in)
Wind
(mph)
3/17/2017 12:00 AM 63 80 0 0 5.6
3/17/2017 1:00 AM 63 81 0 0 6.07
3/17/2017 2:00 AM 62 86 0 0 6.59
3/17/2017 3:00 AM 62 83 0 0 7.17
3/17/2017 4:00 AM 64 80 0 0 7.26
3/17/2017 5:00 AM 65 78 0 0 7.3
3/17/2017 6:00 AM 65 77 0 0 6.23
3/17/2017 7:00 AM 65 75 0 0 7.03
3/17/2017 8:00 AM 65 74 0.01 0 7.75
3/17/2017 9:00 AM 66 74 0.17 0 8.37
3/17/2017 10:00 AM 67 73 0.55 0 9.31
3/17/2017 11:00 AM 69 66 1.53 0 9.49
3/17/2017 12:00 PM 71 64 2.05 0 10.26
3/17/2017 1:00 PM 71 64 1.47 0 9.06
3/17/2017 2:00 PM 71 64 1.29 0 7.99
3/17/2017 3:00 PM 72 62 1.77 0 9.62
3/17/2017 4:00 PM 73 61 1.8 0 8.71
3/17/2017 5:00 PM 73 60 1.09 0 8.81
3/17/2017 6:00 PM 72 61 0.47 0 8.39
3/17/2017 7:00 PM 73 61 0.25 0 5.18
3/17/2017 8:00 PM 72 60 0.02 0 3.34
3/17/2017 9:00 PM 72 62 0 0 1.34
3/17/2017 10:00 PM 71 63 0 0 1.55
3/17/2017 11:00 PM 71 64 0 0 1.08
Data Summary 68 69 12.47 0.00 6.81